Weather History for St. Johnsbury, VT

Change the Weather History Date:

Monday, May 19, 2014

  Actual Average Record
Temperature  
Mean Temperature 47 °F 58 °F  
Max Temperature 58 °F 70 °F 91 °F (1962)
Min Temperature 35 °F 45 °F 28 °F (1957)
Degree Days  
Heating Degree Days 19    
Cooling Degree Days 0 1  
Month to date cooling degree days 4 2  
Year to date cooling degree days 4 3  
Moisture  
Dew Point 39 °F    
Average Humidity 68    
Maximum Humidity 92    
Minimum Humidity 43    
Precipitation  
Precipitation 0.03 in 0.11 in 1.24 in (1904)
Month to date precipitation 2.98 1.98  
Year to date precipitation 14.06 12.03  
Sea Level Pressure  
Sea Level Pressure 30.07 in    
Wind  
Wind Speed - (North)    
Max Wind Speed -    
Max Gust Speed -    
T = Trace of Precipitation, MM = Missing Value Source: NWS Daily Summary

Daily Weather History Graph

Daily Weather History Graph

Search for Another Location

Airport:

Trip Planner

Search our weather history database for the weather conditions in past years. The results will help you decide how hot, cold, wet, or windy it might be!

Date:

Astronomy

May. 19, 2014 Rise Set
Actual Time 5:16 AM EDT 8:13 PM EDT
Civil Twilight 4:42 AM EDT 8:47 PM EDT
Nautical Twilight 3:58 AM EDT 9:31 PM EDT
Astronomical Twilight 3:07 AM EDT 10:23 PM EDT
Moon No Moon Rise 10:14 AM EDT (5/19)
Length of Visible Light 16h 05m
Length of Day
14h 56m
Waning Gibbous, 71% of the Moon is Illuminated
May 19
Waning Gibbous
May 21
Last Quarter
May 28
New
Jun 5
First Quarter
Jun 13
Full

Hourly Weather History & Observations

Time (EDT) Temp. Dew Point Humidity Pressure Visibility Wind Dir Wind Speed Gust Speed Precip Events Conditions
12:54 AM 41.0 °F 35.1 °F 79% 30.10 in - North - - N/A   Unknown
1:54 AM 39.0 °F 35.1 °F 86% 30.09 in - North - - N/A   Unknown
2:54 AM 37.9 °F 34.0 °F 86% 30.09 in - North - - N/A   Unknown
3:54 AM 37.0 °F 33.1 °F 86% 30.09 in - North - - N/A   Unknown
4:54 AM 35.1 °F 33.1 °F 92% 30.10 in - North - - N/A   Unknown
5:54 AM 35.1 °F 32.0 °F 89% 30.11 in - North - - N/A   Unknown
6:54 AM 37.9 °F 33.1 °F 83% 30.12 in - North - - N/A   Unknown
7:54 AM 44.1 °F 34.0 °F 68% 30.11 in - North - - N/A   Unknown
10:54 AM 57.0 °F 35.1 °F 44% 30.07 in - North - - N/A   Unknown
11:54 AM 57.0 °F 35.1 °F 44% 30.07 in - North - - N/A   Unknown
12:54 PM 52.0 °F 44.1 °F 74% 30.09 in - North - - 0.02 in   Unknown
1:54 PM 55.9 °F 39.0 °F 53% 30.07 in - North - - N/A   Unknown
2:54 PM 57.9 °F 36.0 °F 44% 30.06 in - North - - 0.01 in   Unknown
3:54 PM 57.9 °F 37.9 °F 47% 30.05 in - North - - N/A   Unknown
4:54 PM 53.1 °F 43.0 °F 69% 30.06 in - North - - N/A   Unknown
5:54 PM 55.0 °F 43.0 °F 64% 30.05 in - North - - N/A   Unknown
6:54 PM 53.1 °F 45.0 °F 74% 30.05 in - North - - N/A   Unknown
7:54 PM 52.0 °F 45.0 °F 77% 30.04 in - North - - N/A   Unknown
8:54 PM 51.1 °F 45.0 °F 80% 30.04 in - North - - N/A   Unknown
9:54 PM 51.1 °F 44.1 °F 77% 30.05 in - North - - N/A   Unknown
10:54 PM 50.0 °F 44.1 °F 80% 30.05 in - North - - N/A   Unknown
11:54 PM 48.9 °F 45.0 °F 86% 30.04 in - North - - N/A   Unknown